User: anonymous   Login
Location: Albany
(35.0170°S, 117.8920°E)
Time: 23:10:07
(UTC+08:00)
Language:

A-11 Canister half - Orbit

View from above orbital plane
View from above orbital plane
View from above satellite
View from above satellite

Ground track
Ground track

The orbit data is extracted from the following two-line orbital elements,

1 00051U 60009C   21022.73381399 -.00000088  00000-0 -23024-4 0  9994
2 00051  47.2146  29.0219 0104253  95.3242 265.9451 12.18270537690828
Epoch (UTC): 22 January 2021 17:36:41
Eccentricity: 0.0104253
inclination: 47.2146°
perigee height: 1517 km
apogee height: 1683 km
right ascension of ascending node: 29.0219°
argument of perigee: 95.3242°
revolutions per day: 12.18270537
mean anomaly at epoch: 265.9451°
orbit number at epoch: 69082

The dashed part of the orbit path shows where the satellite is in the earth's shadow,  

DLR